Temp
-7 -7 -7 -7 -7 -7 -7 -7 -6 -6 -5 -5 -5 -4 -4 -4 -3 -3 -3 -2 -1 0 1 1 1 2 2 3 5 8 14 15 15 14 13 13 13 13
-8 -8 -8 -8 -8 -8 -8 -8 -7 -7 -6 -6 -6 -5 -5 -5 -4 -4 -4 -3 -2 -1 -0 1 1 2 2 3 4 5 10 13 14 14 14 13 13 13
-9 -9 -8 -8 -8 -8 -8 -8 -8 -7 -7 -6 -6 -6 -6 -5 -5 -4 -4 -3 -3 -2 -1 0 1 1 2 2 3 6 6 11 12 14 14 14 13 13
-9 -10 -9 -9 -9 -8 -8 -8 -8 -8 -8 -7 -7 -6 -6 -5 -5 -5 -4 -4 -3 -3 -1 0 1 2 2 3 4 4 5 6 10 12 14 14 14 13
-10 -10 -10 -10 -9 -9 -9 -9 -8 -8 -7 -7 -7 -6 -6 -6 -5 -5 -4 -4 -4 -3 -1 0 0 0 0 2 2 2 3 5 8 11 13 14 14 14
-10 -10 -9 -9 -9 -9 -8 -8 -8 -7 -7 -7 -7 -6 -6 -5 -5 -5 -4 -4 -3 -2 -2 -2 -1 0 0 1 1 2 2 4 6 10 12 13 14 14
-9 -9 -9 -8 -7 -6 -6 -6 -6 -6 -6 -6 -5 -5 -5 -5 -4 -4 -4 -3 -3 -3 -3 -2 -1 -1 -1 -1 -0 0 1 1 5 5 6 12 13 15
-9 -9 -8 -8 -8 -7 -6 -6 -5 -5 -6 -6 -5 -5 -5 -4 -4 -4 -4 -4 -3 -3 -3 -3 -2 -2 -2 -1 -1 -1 -0 0 1 2 5 6 12 13
-9 -9 -9 -9 -8 -8 -8 -7 -7 -6 -5 -5 -5 -6 -5 -5 -5 -5 -4 -4 -4 -4 -3 -3 -3 -3 -3 -2 -1 -1 -1 -1 0 1 2 4 6 12
-10 -10 -10 -9 -9 -8 -8 -7 -7 -7 -7 -6 -6 -6 -6 -6 -5 -5 -5 -5 -4 -4 -4 -4 -3 -3 -3 -2 -1 -1 -1 -1 -0 0 1 2 4 7
-10 -10 -9 -9 -9 -7 -7 -7 -7 -6 -6 -5 -5 -4 -4 -4 -3 -4 -4 -5 -4 -4 -4 -4 -4 -3 -3 -2 -1 -1 -1 -1 -0 1 1 3 5 6
-10 -9 -9 -8 -7 -6 -6 -6 -6 -6 -6 -6 -5 -5 -5 -5 -4 -4 -4 -4 -4 -3 -3 -3 -3 -3 -3 -2 -1 -0 -1 -1 -1 0 2 3 4 5
-9 -9 -9 -8 -7 -6 -6 -6 -6 -6 -6 -5 -5 -5 -5 -5 -5 -5 -5 -5 -4 -4 -4 -3 -3 -3 -3 -3 -2 -2 -1 -1 -2 -1 -1 1 3 4
-9 -9 -9 -8 -7 -7 -6 -6 -5 -5 -5 -5 -5 -6 -6 -5 -5 -5 -5 -5 -5 -5 -4 -4 -4 -4 -4 -3 -3 -2 -2 -1 -2 -2 -2 -1 0 2
-9 -9 -8 -8 -7 -7 -7 -7 -6 -6 -6 -7 -7 -7 -7 -7 -7 -7 -6 -6 -5 -5 -5 -4 -4 -4 -4 -4 -3 -3 -2 -2 -2 -2 -2 -2 -1 -0
-10 -9 -9 -8 -7 -8 -7 -8 -8 -8 -8 -8 -7 -7 -8 -8 -8 -8 -7 -7 -7 -6 -6 -5 -5 -5 -4 -4 -3 -3 -3 -2 -2 -1 -1 -1 -1 -0
-9 -9 -9 -10 -9 -9 -9 -9 -9 -9 -9 -9 -9 -9 -9 -8 -8 -8 -8 -8 -7 -7 -7 -6 -6 -5 -5 -5 -4 -4 -3 -3 -2 -2 -2 -2 -2 -2
-9 -10 -11 -11 -11 -11 -11 -10 -10 -10 -10 -10 -9 -9 -9 -9 -8 -8 -8 -8 -8 -7 -7 -7 -6 -6 -6 -5 -5 -4 -4 -4 -3 -2 -2 -2 -1 -1
-13 -13 -13 -13 -13 -13 -12 -12 -11 -11 -11 -11 -10 -10 -10 -9 -9 -8 -8 -8 -8 -7 -7 -7 -7 -7 -7 -6 -4 -4 -4 -4 -3 -3 -2 -2 -2 -1
-14 -15 -15 -15 -14 -14 -13 -13 -12 -12 -12 -11 -11 -11 -10 -10 -9 -9 -9 -8 -8 -8 -8 -7 -7 -7 -7 -6 -6 -5 -4 -4 -3 -3 -2 -2 -2 -1
-16 -16 -16 -15 -15 -14 -14 -14 -13 -13 -12 -12 -11 -11 -10 -10 -10 -9 -9 -8 -7 -8 -8 -8 -7 -7 -7 -7 -7 -6 -6 -5 -4 -3 -2 -2 -1 -1
-17 -17 -16 -16 -15 -15 -15 -14 -14 -13 -13 -13 -12 -11 -11 -11 -10 -10 -9 -9 -9 -8 -8 -7 -7 -7 -6 -6 -6 -6 -5 -5 -4 -4 -3 -2 -1 -0
-17 -17 -17 -16 -15 -15 -15 -14 -14 -14 -13 -13 -12 -12 -11 -11 -10 -10 -9 -9 -9 -9 -8 -8 -8 -7 -7 -6 -6 -6 -6 -5 -5 -4 -4 -3 -2 -1
Height
860 857 855 853 851 850 848 847 844 834 827 825 823 820 816 812 808 805 800 795 794 792 790 785 781 781 777 774 770 768 777 780 785 790 795 800 805 812
856 854 851 849 847 845 843 842 840 836 825 826 821 815 811 807 803 801 796 794 790 787 783 781 779 773 772 766 764 761 763 768 772 777 783 788 793 799
851 849 845 844 842 840 838 836 833 831 823 816 816 813 806 800 797 793 789 785 781 779 777 773 769 766 762 759 759 757 756 753 758 763 770 775 781 787
844 843 840 839 836 834 833 829 826 824 821 810 810 806 803 796 789 785 782 777 773 771 769 764 760 757 754 752 753 751 749 746 746 749 755 761 767 774
839 837 834 833 829 828 827 823 819 816 814 807 799 799 796 793 783 777 774 770 765 763 760 756 753 749 746 745 746 742 737 737 735 734 740 747 753 759
832 829 826 825 823 821 819 815 810 808 805 801 793 789 788 784 779 772 764 762 758 757 754 750 744 740 738 735 736 734 728 727 725 724 727 732 738 744
824 822 820 819 816 813 810 805 804 800 797 794 787 780 777 776 773 768 760 754 751 752 745 741 737 733 730 729 728 723 719 717 716 714 713 717 723 728
817 815 813 810 808 805 801 798 796 791 787 784 779 773 768 768 765 763 757 748 740 746 741 731 733 726 725 721 718 711 708 709 709 707 703 707 709 713
811 808 804 802 800 796 792 789 785 782 779 776 770 765 760 757 755 751 749 743 733 729 729 720 720 711 709 706 703 699 701 697 699 691 695 699 699 694
803 800 797 792 789 787 783 778 773 769 766 765 760 752 750 746 746 741 737 730 723 718 721 710 708 700 699 696 697 695 693 690 685 679 685 690 692 683
795 792 789 784 780 778 773 768 762 756 755 752 748 743 739 735 733 730 724 721 714 708 709 703 698 694 692 688 687 684 677 672 671 675 674 680 679 672
785 782 779 775 770 766 762 758 752 745 744 738 733 728 725 720 719 719 715 712 709 700 694 697 689 690 680 678 676 672 669 666 668 663 663 668 664 659
776 771 768 765 760 756 752 748 742 737 730 725 720 718 715 712 708 707 703 702 697 687 681 689 682 679 675 668 665 666 662 660 657 651 652 653 651 648
767 763 758 755 751 746 741 736 730 726 721 717 712 708 704 700 696 695 692 689 684 677 676 678 673 670 665 659 655 655 651 650 649 639 641 639 633 634
759 754 748 744 739 734 731 728 723 718 714 709 704 699 695 691 687 684 680 677 672 668 665 663 661 656 654 647 643 642 643 637 638 631 635 627 628 626
749 744 740 735 731 727 723 719 716 711 707 702 695 690 686 682 678 674 669 666 662 654 651 650 648 646 640 637 635 630 630 628 626 624 620 620 618 615
739 735 731 727 724 720 716 712 707 703 698 693 688 682 677 672 666 663 659 655 651 643 637 636 636 634 631 628 624 621 620 618 617 617 618 613 609 601
731 727 725 722 718 714 709 704 699 694 689 684 679 673 667 661 655 651 649 644 639 633 626 625 625 622 618 611 612 607 608 607 608 607 605 597 592 597
725 722 719 716 712 708 703 697 691 684 680 675 670 663 657 651 645 639 635 632 626 620 614 613 613 612 605 594 586 595 592 592 593 592 589 588 579 582
721 718 714 710 705 700 694 688 681 675 670 664 658 652 646 640 633 627 622 618 613 607 601 599 598 596 592 580 580 579 583 582 582 579 578 572 569 577
715 711 707 702 696 691 685 678 673 666 660 653 646 639 632 626 618 612 607 603 598 593 585 581 578 579 576 577 569 560 562 569 569 569 566 562 562 566
708 704 698 694 689 683 675 669 662 655 648 640 632 625 617 611 603 595 590 585 580 574 566 562 562 563 561 557 546 546 547 553 555 554 556 554 553 548
701 697 690 685 679 672 666 659 652 643 635 626 618 609 600 592 584 576 569 563 558 553 548 544 545 545 539 536 533 533 534 538 541 542 540 537 537 537
Wind_Speed
21 21 20 21 22 20 18 18 18 11 11 19 22 25 31 35 32 34 34 37 42 37 34 35 35 36 38 37 33 24 48 54 56 55 53 53 51 49
20 20 22 22 23 24 21 20 20 21 13 23 26 35 34 34 37 35 37 32 32 34 38 34 34 34 36 38 40 36 22 46 58 58 57 55 56 54
23 24 26 23 25 24 23 21 22 22 23 28 27 28 38 37 35 37 35 33 37 34 34 35 34 35 33 35 37 41 36 29 43 60 59 58 57 56
25 24 26 20 23 24 24 25 24 25 26 30 29 28 28 38 40 35 36 35 34 34 34 34 32 28 25 26 25 26 30 34 32 45 59 61 61 59
25 25 27 23 26 24 24 26 27 27 27 29 33 29 29 30 40 37 32 33 34 32 30 31 34 34 33 33 36 36 34 41 41 39 59 61 64 63
25 25 27 25 27 28 28 30 30 30 30 30 32 30 28 27 30 35 34 29 32 30 35 33 36 32 29 23 24 26 30 42 35 35 52 60 65 67
27 27 28 28 29 31 31 28 30 29 30 30 32 31 27 24 25 30 33 33 30 32 34 32 27 25 29 30 29 26 28 34 43 33 24 62 64 68
28 26 27 30 33 33 32 33 36 35 31 29 29 28 32 28 29 28 33 34 17 34 37 39 34 37 38 37 38 36 34 33 34 41 39 32 64 67
27 28 29 29 30 31 35 33 35 36 37 38 34 34 34 35 32 31 31 36 37 39 31 35 34 38 37 37 34 33 35 35 40 37 43 47 37 67
27 29 30 33 33 31 33 34 37 38 37 36 37 42 41 42 37 38 40 42 44 42 32 27 34 35 33 33 33 32 33 38 36 33 35 44 48 31
28 29 30 33 33 32 34 35 36 38 34 37 40 42 43 44 44 41 31 25 23 34 29 31 31 30 26 30 34 39 41 36 34 34 32 41 38 34
28 29 29 30 32 34 34 33 33 36 35 38 40 40 41 44 44 41 37 30 28 27 38 29 32 27 25 35 36 31 17 23 29 20 24 32 36 33
28 29 28 30 32 34 36 36 36 40 41 38 30 28 32 34 34 32 37 35 33 35 43 31 31 28 29 28 29 34 40 37 35 36 35 37 40 31
26 29 30 32 34 36 38 38 39 39 33 32 30 32 33 33 33 32 34 35 39 44 46 37 31 29 26 25 21 29 32 30 29 28 33 35 37 44
27 30 35 35 36 36 35 32 35 32 29 29 28 30 30 32 33 33 33 35 37 39 42 40 39 39 34 32 29 29 29 30 29 27 34 35 35 31
27 30 32 34 33 27 29 27 26 26 26 27 30 32 32 32 31 30 31 30 30 35 39 38 39 39 38 38 36 35 33 24 26 26 21 22 21 19
31 27 27 17 21 23 24 24 25 26 26 28 28 29 30 30 30 30 30 29 28 30 33 33 33 36 39 39 33 36 33 32 35 34 31 32 33 33
29 19 18 20 20 22 23 25 26 27 27 27 28 29 29 29 30 30 29 28 27 30 32 32 30 29 30 36 41 38 36 34 34 34 32 29 29 27
17 24 21 22 23 24 25 26 28 30 30 30 30 31 31 31 33 30 29 28 28 30 33 33 29 25 14 17 35 35 36 34 31 30 31 32 30 33
27 22 24 25 25 26 28 28 30 31 31 31 31 32 33 33 31 31 30 29 28 30 31 32 31 29 18 22 17 31 28 33 28 28 31 33 34 34
26 25 25 26 27 29 30 31 31 33 34 34 35 36 36 34 34 34 34 38 38 32 18 28 37 41 42 36 25 29 38 38 39 33 30 27 25 24
27 26 29 27 28 30 33 33 33 35 36 36 36 37 38 37 37 37 36 33 33 35 37 41 39 36 35 29 19 23 32 30 34 43 47 42 23 12
28 28 30 31 32 32 33 33 34 37 38 39 40 40 41 39 42 42 41 41 39 38 39 36 36 36 37 35 31 23 31 31 28 28 35 46 48 50
Wind_Direction
302 302 299 303 304 295 284 281 288 300 300 307 309 307 310 309 310 309 312 309 310 310 310 311 311 305 307 308 317 324 239 235 230 224 221 223 222 220
295 293 295 294 295 293 287 282 278 279 289 296 293 299 304 302 303 303 302 303 303 304 305 303 301 304 302 304 301 303 279 241 235 230 223 222 222 223
292 290 291 295 292 289 287 279 276 276 282 291 290 292 298 299 300 302 302 298 300 301 301 300 300 298 297 300 294 297 291 264 242 234 230 224 222 221
291 288 286 286 282 283 281 279 276 275 274 284 289 289 285 295 298 295 295 297 296 296 298 297 299 300 297 294 288 286 297 291 261 244 234 228 226 220
284 283 283 278 278 275 275 276 277 276 273 275 282 284 283 285 292 294 291 292 293 295 294 295 295 293 292 288 285 283 287 286 288 250 235 232 228 226
283 279 281 279 277 279 277 274 272 273 275 274 279 283 282 282 276 286 293 290 289 289 291 288 293 292 292 293 293 284 280 285 299 262 242 235 230 228
282 281 280 280 280 279 276 279 282 279 277 275 275 278 277 279 275 281 286 295 291 287 287 286 286 292 299 298 295 295 299 291 272 290 292 238 232 233
281 283 283 284 281 281 280 279 280 281 278 278 279 278 282 283 284 281 284 288 287 276 285 283 286 286 288 288 288 290 290 290 288 277 280 298 237 229
282 284 285 282 283 283 282 281 279 277 276 279 279 277 279 276 276 275 270 274 275 280 279 277 282 280 282 284 285 286 281 285 281 280 278 277 286 228
281 282 280 282 280 279 278 276 274 273 272 273 269 268 269 272 269 266 267 267 273 274 268 268 274 271 277 277 282 280 277 279 279 276 275 278 280 266
280 278 277 277 278 281 277 274 276 275 277 280 280 279 278 278 278 275 269 261 267 275 275 260 270 273 274 281 284 286 280 276 270 262 274 281 277 271
280 280 279 280 282 282 283 284 282 281 283 282 278 276 273 271 274 272 272 271 270 278 273 266 273 274 282 280 282 271 266 293 293 286 260 266 273 284
276 278 280 286 286 286 284 282 280 284 281 283 288 292 289 282 279 273 266 257 261 262 269 270 273 269 263 273 272 270 281 288 288 291 281 268 269 275
287 288 286 288 286 283 284 284 289 293 294 294 291 288 286 282 280 275 271 267 260 257 268 264 264 264 264 272 270 273 269 271 274 277 280 284 271 270
284 283 287 288 290 290 287 289 295 296 291 288 284 283 282 282 282 279 275 271 270 268 267 263 257 261 257 260 268 268 270 269 271 273 273 272 269 266
283 283 284 287 290 293 296 293 291 287 285 283 283 284 285 284 280 277 275 274 270 269 267 264 261 260 263 261 264 266 259 257 266 266 279 276 275 273
292 296 292 297 301 296 293 289 290 288 285 283 283 283 282 281 278 276 271 271 264 266 269 268 263 260 258 260 262 261 264 263 260 260 262 261 262 262
293 293 305 302 296 296 294 291 290 289 286 287 284 282 281 280 279 277 272 266 264 264 266 267 267 266 263 258 249 255 256 253 253 253 253 257 263 255
323 313 306 298 292 289 287 286 285 287 289 285 282 280 280 278 277 275 271 267 265 263 262 263 260 256 259 258 260 246 251 255 255 255 254 252 254 260
312 298 292 288 285 284 286 285 286 287 286 284 282 279 277 274 274 271 269 266 264 263 263 260 255 251 247 253 266 264 254 258 253 248 245 250 253 256
296 291 287 284 285 287 286 285 284 283 284 283 281 278 276 273 271 268 267 265 264 260 256 255 252 252 254 257 257 257 255 248 249 250 253 248 251 251
294 289 290 287 286 287 287 286 285 284 283 281 278 276 274 272 269 267 264 261 258 256 256 258 259 254 245 240 249 255 258 250 244 245 247 249 247 236
297 292 292 293 292 290 287 285 283 281 280 279 278 276 275 272 269 266 264 261 257 254 254 254 251 247 244 242 245 250 250 248 245 240 241 245 250 252